Valley, United Kingdom

9:07 AM BST on July 28, 2017 (GMT +0100)
Valley Air Base

Weather History for EGOV - March, 2014

Change the Weather History Date:

Monday, March 10, 2014

  Actual Average Record
Temperature  
Mean Temperature 45 °F -  
Max Temperature 51 °F 50 °F 53 °F (2012)
Min Temperature 39 °F 40 °F 30 °F (2004)
Degree Days  
Heating Degree Days 20    
Moisture  
Dew Point 39 °F    
Average Humidity 79    
Maximum Humidity 93    
Minimum Humidity 45    
Precipitation  
Precipitation 0.01 in 0.08 in - ()
Sea Level Pressure  
Sea Level Pressure 30.44 in    
Wind  
Wind Speed 8 mph ()    
Max Wind Speed 18 mph    
Max Gust Speed -    
Visibility 9.1 miles    
Events Rain    
Averages and records for this station are not official NWS values.
T = Trace of Precipitation, MM = Missing Value Source: Averaged Metar Reports

Daily Weather History Graph

Daily Weather History Graph

Search for Another Location

Airport or City:

Trip Planner

Search our weather history database for the weather conditions in past years. The results will help you decide how hot, cold, wet, or windy it might be!

Date:

Astronomy

Mar. 10, 2014 Rise Set
Actual Time 6:44 AM GMT 6:12 PM GMT
Civil Twilight 6:10 AM GMT 6:47 PM GMT
Nautical Twilight 5:30 AM GMT 7:27 PM GMT
Astronomical Twilight 4:48 AM GMT 8:09 PM GMT
Moon 12:09 PM GMT (3/10) 3:21 AM GMT (3/10)
Length of Visible Light 12h 37m
Length of Day
11h 27m
Waxing Gibbous, 68% of the Moon is Illuminated
Mar 10
Waxing Gibbous
Mar 16
Full
Mar 24
Last Quarter
Mar 30
New
Apr 7
First Quarter

Hourly Weather History & Observations

Time (GMT) Temp. Windchill Dew Point Humidity Pressure Visibility Wind Dir Wind Speed Gust Speed Precip Events Conditions
12:00 AM 45 °F - 44 °F 92% 30.24 in 12 mi NNW 18.4 mph - - Rain Light Drizzle
12:50 AM 44.6 °F 38.8 °F 42.8 °F 93% 30.24 in 6.2 mi North 11.5 mph - N/A   Mostly Cloudy
1:00 AM 45 °F - 43 °F 89% 30.27 in 11 mi North 11.5 mph - - Rain Rain
1:50 AM 44.6 °F 40.2 °F 42.8 °F 93% 30.27 in 6.2 mi North 8.1 mph - N/A   Overcast
2:00 AM 45 °F - 42 °F 85% 30.29 in 12 mi North 8.1 mph - -   Overcast
2:50 AM 44.6 °F 41.4 °F 41.0 °F 87% 30.30 in 6.2 mi NNE 5.8 mph - N/A   Mostly Cloudy
3:00 AM 44 °F - 42 °F 88% 30.32 in 25 mi NNE 5.8 mph - -   Scattered Clouds
3:50 AM 42.8 °F 40.1 °F 41.0 °F 93% 30.33 in 6.2 mi North 4.6 mph - N/A   Partly Cloudy
4:00 AM 42 °F - 40 °F 90% 30.33 in 25 mi North 4.6 mph - -   Scattered Clouds
4:50 AM 41.0 °F 37.1 °F 39.2 °F 93% 30.33 in 6.2 mi NNE 5.8 mph - N/A   Partly Cloudy
5:00 AM 41 °F - 39 °F 90% 30.35 in 25 mi NNE 5.8 mph - -   Scattered Clouds
5:50 AM 39.2 °F 34.2 °F 37.4 °F 93% 30.36 in 6.2 mi North 6.9 mph - N/A   Partly Cloudy
6:00 AM 39 °F - 38 °F 93% 30.38 in 25 mi North 6.9 mph - -   Scattered Clouds
6:50 AM 39.2 °F 34.2 °F 37.4 °F 93% 30.39 in 6.2 mi NNE 6.9 mph - N/A   Mostly Cloudy
7:00 AM 39 °F - 37 °F 91% 30.41 in 25 mi NNE 6.9 mph - -   Scattered Clouds
7:50 AM 42.8 °F 39.3 °F 39.2 °F 87% 30.42 in 6.2 mi North 5.8 mph - N/A   Mostly Cloudy
8:00 AM 42 °F - 39 °F 84% 30.43 in 37 mi North 5.8 mph - -   Scattered Clouds
8:50 AM 44.6 °F 40.7 °F 41.0 °F 87% 30.45 in 6.2 mi NNE 6.9 mph - N/A   Mostly Cloudy
9:00 AM 45 °F - 40 °F 78% 30.45 in 31 mi NNE 6.9 mph - -   Scattered Clouds
9:50 AM 48.2 °F - 39.2 °F 71% 30.45 in 6.2 mi NNE 10.4 mph - N/A   Scattered Clouds
10:00 AM 47 °F - 40 °F 68% 30.46 in 37 mi NNE 10.4 mph - -   Scattered Clouds
10:50 AM 48.2 °F - 39.2 °F 71% 30.48 in 6.2 mi NE 8.1 mph - N/A   Partly Cloudy
11:00 AM 48 °F - 39 °F 63% 30.48 in 37 mi NE 8.1 mph - -   Scattered Clouds
11:50 AM 48.2 °F - 37.4 °F 66% 30.48 in 6.2 mi NNE 9.2 mph - N/A   Partly Cloudy
12:00 PM 48 °F - 38 °F 59% 30.49 in 31 mi NNE 9.2 mph - -   Scattered Clouds
12:50 PM 50.0 °F - 37.4 °F 62% 30.48 in 6.2 mi NE 9.2 mph - N/A   Scattered Clouds
1:00 PM 50 °F - 37 °F 51% 30.48 in 25 mi NE 9.2 mph - -   Scattered Clouds
1:50 PM 50.0 °F - 35.6 °F 58% 30.48 in 6.2 mi NE 11.5 mph - N/A   Scattered Clouds
2:00 PM 50 °F - 35 °F 45% 30.48 in 31 mi NE 11.5 mph - -   Scattered Clouds
2:50 PM 50.0 °F - 37.4 °F 62% 30.48 in 6.2 mi NNE 11.5 mph - N/A   Scattered Clouds
3:00 PM 50 °F - 37 °F 51% 30.49 in 31 mi NNE 11.5 mph - -   Scattered Clouds
3:50 PM 50.0 °F - 37.4 °F 62% 30.48 in 6.2 mi NNE 12.7 mph - N/A   Mostly Cloudy
4:00 PM 49 °F - 37 °F 52% 30.49 in 31 mi NNE 12.7 mph - -   Scattered Clouds
4:50 PM 48.2 °F - 39.2 °F 71% 30.48 in - NNE 12.7 mph - N/A   Clear
5:00 PM 47 °F - 38 °F 63% 30.50 in 37 mi NNE 12.7 mph - -   Clear
5:50 PM 44.6 °F 39.2 °F 39.2 °F 81% 30.51 in - NE 10.4 mph - N/A   Clear
6:00 PM 45 °F - 39 °F 72% 30.51 in 31 mi NE 10.4 mph - -   Clear
6:50 PM 42.8 °F 37.5 °F 39.2 °F 87% 30.51 in - NE 9.2 mph - N/A   Clear
7:00 PM 43 °F - 39 °F 81% 30.53 in 25 mi NE 9.2 mph - -   Clear
7:50 PM 41.0 °F 38.0 °F 39.2 °F 93% 30.54 in - North 4.6 mph - N/A   Clear
8:00 PM 42 °F - 39 °F 83% 30.54 in 19 mi North 4.6 mph - -   Clear
8:50 PM 41.0 °F 37.1 °F 39.2 °F 93% 30.54 in - NE 5.8 mph - N/A   Clear
9:00 PM 41 °F - 39 °F 90% 30.55 in 19 mi NE 5.8 mph - -  
9:50 PM 41.0 °F 35.8 °F 39.2 °F 93% 30.54 in - NE 8.1 mph - N/A   Clear
10:00 PM 41 °F - 39 °F 88% 30.55 in 19 mi NE 8.1 mph - -  
10:50 PM 39.2 °F 35.0 °F 37.4 °F 93% 30.54 in - NE 5.8 mph - N/A   Clear
11:00 PM 40 °F - 38 °F 88% 30.55 in 19 mi NE 5.8 mph - -  
11:50 PM 39.2 °F 34.2 °F 35.6 °F 87% 30.54 in - NE 6.9 mph - N/A   Clear